User: anonymous   Login
Location: Fort Wayne
(41.1310°N, 85.1290°W)
Time: 09:26:52
(UTC-04:00)
Language:

SR - Orbit

View from above orbital plane
View from above orbital plane
View from above satellite
View from above satellite

Ground track
Ground track

The orbit data is extracted from the following two-line orbital elements,

1 00046U 60007B   16209.20863859  .00000018  00000-0  26936-4 0  9991
2 00046  66.6911 285.7976 0203884 111.2386 251.0632 14.48907279933175
Epoch (UTC): 27 July 2016 05:00:26
Eccentricity: 0.0203884
inclination: 66.6911°
perigee height: 584 km
apogee height: 874 km
right ascension of ascending node: 285.7976°
argument of perigee: 111.2386°
revolutions per day: 14.48907279
mean anomaly at epoch: 251.0632°
orbit number at epoch: 93317

The dashed part of the orbit path shows where the satellite is in the earth's shadow,  

DLR